BEL233 LPMA-LEMD

Flight info

Callsign BEL233
Flight time N/A
Altitude 38000
Route DEGUN DCT NARTA DCT PORTA DCT OGERO Z409 TLD
Aircraft A21N/M-SDE3FGHIRWY/LB1

Departure

Time 2026-05-06 19:11
Airport Cristiano Ronaldo International Airport (LPMA)

Arrival

Time N/A
Airport Adolfo Suárez Madrid–Barajas Airport (LEMD)
Time Latitude Longitude Altitude Speed Heading
2026-05-06 18:46 32.69436 -16.77550 189 ft 0 kts 138°
2026-05-06 19:02 32.69437 -16.77551 189 ft 2 kts 137°
2026-05-06 19:03 32.69448 -16.77564 191 ft 2 kts 138°
2026-05-06 19:03 32.69459 -16.77575 193 ft 2 kts 137°
2026-05-06 19:03 32.69471 -16.77587 195 ft 2 kts 142°
2026-05-06 19:03 32.69485 -16.77594 196 ft 2 kts 176°
2026-05-06 19:04 32.69500 -16.77591 196 ft 2 kts 204°
2026-05-06 19:04 32.69508 -16.77585 196 ft 0 kts 223°
2026-05-06 19:04 32.69513 -16.77579 196 ft 0 kts 227°
2026-05-06 19:06 32.69508 -16.77586 196 ft 2 kts 227°
2026-05-06 19:07 32.69494 -16.77603 196 ft 3 kts 227°
2026-05-06 19:07 32.69481 -16.77619 196 ft 4 kts 227°
2026-05-06 19:07 32.69447 -16.77661 195 ft 6 kts 226°
2026-05-06 19:07 32.69422 -16.77692 195 ft 0 kts 226°
2026-05-06 19:08 32.69421 -16.77694 195 ft 1 kts 226°
2026-05-06 19:08 32.69373 -16.77753 193 ft 22 kts 226°
2026-05-06 19:08 32.69286 -16.77932 184 ft 23 kts 269°
2026-05-06 19:08 32.69237 -16.78068 178 ft 19 kts 224°
2026-05-06 19:09 32.69132 -16.78210 163 ft 26 kts 228°
2026-05-06 19:09 32.69008 -16.78364 150 ft 21 kts 226°
2026-05-06 19:09 32.68915 -16.78440 141 ft 8 kts 237°
2026-05-06 19:09 32.68924 -16.78459 142 ft 2 kts 79°
2026-05-06 19:10 32.68925 -16.78380 143 ft 14 kts 56°
2026-05-06 19:10 32.68988 -16.78371 150 ft 11 kts 34°
2026-05-06 19:10 32.69124 -16.78218 162 ft 49 kts 46°
2026-05-06 19:10 32.69528 -16.77742 207 ft 113 kts 41°
2026-05-06 19:11 32.70205 -16.76964 503 ft 139 kts 40°
2026-05-06 19:11 32.70828 -16.76310 1332 ft 115 kts 39°
2026-05-06 19:11 32.71257 -16.75450 1603 ft 138 kts 85°
2026-05-06 19:11 32.70870 -16.74352 1961 ft 159 kts 135°
2026-05-06 19:12 32.69849 -16.73669 2324 ft 179 kts 152°
2026-05-06 19:12 32.68642 -16.73007 2676 ft 201 kts 152°
2026-05-06 19:12 32.67489 -16.71992 3043 ft 218 kts 124°
2026-05-06 19:12 32.66844 -16.70329 3506 ft 230 kts 93°
2026-05-06 19:13 32.66869 -16.68356 4027 ft 244 kts 84°
2026-05-06 19:13 32.66870 -16.66273 4546 ft 263 kts 91°
2026-05-06 19:13 32.66665 -16.64111 5273 ft 271 kts 96°
2026-05-06 19:13 32.66313 -16.61908 6068 ft 276 kts 99°
2026-05-06 19:14 32.65886 -16.59682 6864 ft 281 kts 100°
2026-05-06 19:14 32.65420 -16.57396 7638 ft 286 kts 99°
2026-05-06 19:14 32.65309 -16.55099 8347 ft 284 kts 73°
2026-05-06 19:14 32.66149 -16.53033 9117 ft 279 kts 45°
2026-05-06 19:15 32.67076 -16.51935 9638 ft 279 kts 39°
2026-05-06 19:15 32.69027 -16.49795 10578 ft 287 kts 39°
2026-05-06 19:15 32.70580 -16.48069 10979 ft 304 kts 40°
2026-05-06 19:15 32.72226 -16.46223 11321 ft 322 kts 40°
2026-05-06 19:16 32.73990 -16.44227 11910 ft 331 kts 40°
2026-05-06 19:16 32.75680 -16.42301 12642 ft 334 kts 40°
2026-05-06 19:16 32.77355 -16.40388 13338 ft 337 kts 39°
2026-05-06 19:16 32.79052 -16.38453 14017 ft 340 kts 39°
2026-05-06 19:17 32.80757 -16.36506 14647 ft 344 kts 39°
2026-05-06 19:17 32.82510 -16.34498 15318 ft 347 kts 39°
2026-05-06 19:17 32.84232 -16.32528 15922 ft 350 kts 40°
2026-05-06 19:17 32.86006 -16.30498 16543 ft 354 kts 39°
2026-05-06 19:18 32.87786 -16.28459 17128 ft 357 kts 39°
2026-05-06 19:18 32.89572 -16.26410 17736 ft 359 kts 39°
2026-05-06 19:18 32.91359 -16.24358 18338 ft 361 kts 39°
2026-05-06 19:18 32.93178 -16.22270 18943 ft 363 kts 39°
2026-05-06 19:19 32.94980 -16.20199 19512 ft 366 kts 39°
2026-05-06 19:19 32.96825 -16.18078 20090 ft 368 kts 39°
2026-05-06 19:19 32.98642 -16.15986 20666 ft 369 kts 39°
2026-05-06 19:19 33.00505 -16.13840 21153 ft 373 kts 38°
2026-05-06 19:20 33.02360 -16.11707 21651 ft 376 kts 38°
2026-05-06 19:20 33.04248 -16.09531 22170 ft 378 kts 38°
2026-05-06 19:20 33.06150 -16.07338 22689 ft 380 kts 38°
2026-05-06 19:20 33.08042 -16.05154 23221 ft 380 kts 38°
2026-05-06 19:21 33.09928 -16.02973 23722 ft 382 kts 38°
2026-05-06 19:21 33.11857 -16.00746 24036 ft 384 kts 37°
2026-05-06 19:21 33.13769 -15.98536 24058 ft 384 kts 38°
2026-05-06 19:21 33.15684 -15.96324 24062 ft 385 kts 38°
2026-05-06 19:22 33.17612 -15.94093 24060 ft 385 kts 38°
2026-05-06 19:22 33.19524 -15.91876 24059 ft 384 kts 38°
2026-05-06 19:22 33.21426 -15.89670 24057 ft 384 kts 38°
2026-05-06 19:22 33.23350 -15.87436 24053 ft 384 kts 37°
2026-05-06 19:23 33.25263 -15.85214 24050 ft 385 kts 38°
2026-05-06 19:23 33.27195 -15.82971 24049 ft 385 kts 37°
2026-05-06 19:23 33.29087 -15.80773 24046 ft 384 kts 38°
2026-05-06 19:23 33.31017 -15.78527 24045 ft 384 kts 38°
2026-05-06 19:24 33.32936 -15.76291 24044 ft 385 kts 38°
2026-05-06 19:24 33.34837 -15.74074 24046 ft 385 kts 38°
2026-05-06 19:24 33.36769 -15.71821 24047 ft 385 kts 38°
2026-05-06 19:24 33.38664 -15.69609 24046 ft 386 kts 38°
2026-05-06 19:25 33.40586 -15.67365 24046 ft 386 kts 38°
2026-05-06 19:25 33.42517 -15.65123 24047 ft 385 kts 37°
2026-05-06 19:25 33.44460 -15.62933 24045 ft 385 kts 37°
2026-05-06 19:25 33.46433 -15.60732 24044 ft 386 kts 37°
2026-05-06 19:26 33.48381 -15.58553 24046 ft 386 kts 37°
2026-05-06 19:26 33.50337 -15.56363 24045 ft 386 kts 37°
2026-05-06 19:26 33.52290 -15.54168 24044 ft 386 kts 37°
2026-05-06 19:26 33.54256 -15.51957 24048 ft 386 kts 37°
2026-05-06 19:27 33.56203 -15.49764 24047 ft 386 kts 37°
2026-05-06 19:27 33.58166 -15.47551 24047 ft 387 kts 37°
2026-05-06 19:27 33.60113 -15.45354 24045 ft 387 kts 37°
2026-05-06 19:27 33.62084 -15.43129 24046 ft 387 kts 37°
2026-05-06 19:28 33.64039 -15.40920 24048 ft 387 kts 37°
2026-05-06 19:28 33.66004 -15.38696 24045 ft 387 kts 37°
2026-05-06 19:28 33.67952 -15.36491 24045 ft 387 kts 37°
2026-05-06 19:28 33.69914 -15.34269 24047 ft 387 kts 37°
2026-05-06 19:29 33.71852 -15.32072 24048 ft 388 kts 37°
2026-05-06 19:29 33.73837 -15.29823 24046 ft 389 kts 37°
2026-05-06 19:29 33.75797 -15.27599 24044 ft 389 kts 37°
2026-05-06 19:29 33.77768 -15.25362 24044 ft 389 kts 37°
2026-05-06 19:30 33.79717 -15.23147 24044 ft 389 kts 37°
2026-05-06 19:30 33.81683 -15.20911 24044 ft 389 kts 37°
2026-05-06 19:30 33.83655 -15.18666 24045 ft 389 kts 37°
2026-05-06 19:30 33.85606 -15.16444 24045 ft 389 kts 37°
2026-05-06 19:31 33.87575 -15.14200 24045 ft 389 kts 37°
2026-05-06 19:31 33.89521 -15.11984 24043 ft 389 kts 37°
2026-05-06 19:31 33.93444 -15.07505 24044 ft 389 kts 37°
2026-05-06 19:32 33.95421 -15.05244 24043 ft 389 kts 37°
2026-05-06 19:32 33.97362 -15.03027 24045 ft 389 kts 37°
2026-05-06 19:32 33.99320 -15.00791 24048 ft 389 kts 37°
2026-05-06 19:32 34.01292 -14.98530 24053 ft 390 kts 37°
2026-05-06 19:33 34.03245 -14.96295 24059 ft 389 kts 37°
2026-05-06 19:33 34.05221 -14.94031 24058 ft 390 kts 37°
2026-05-06 19:33 34.07172 -14.91792 24056 ft 390 kts 37°
2026-05-06 19:33 34.09143 -14.89528 24062 ft 390 kts 37°
2026-05-06 19:34 34.11090 -14.87292 24060 ft 390 kts 37°
2026-05-06 19:34 34.13067 -14.85018 24067 ft 391 kts 37°
2026-05-06 19:34 34.15027 -14.82768 24065 ft 390 kts 37°
2026-05-06 19:34 34.17007 -14.80491 24060 ft 391 kts 37°
2026-05-06 19:35 34.18293 -14.79011 24058 ft 391 kts 37°
2026-05-06 19:35 34.20918 -14.75984 24057 ft 390 kts 37°
2026-05-06 19:35 34.22896 -14.73701 24058 ft 391 kts 37°
2026-05-06 19:35 34.24846 -14.71453 24061 ft 391 kts 37°
2026-05-06 19:36 34.26828 -14.69164 24057 ft 391 kts 37°
2026-05-06 19:36 34.28779 -14.66911 24062 ft 391 kts 37°
2026-05-06 19:36 34.30741 -14.64639 24058 ft 391 kts 37°
2026-05-06 19:36 34.32717 -14.62354 24059 ft 391 kts 37°
2026-05-06 19:37 34.34658 -14.60104 24054 ft 391 kts 37°
2026-05-06 19:37 34.36620 -14.57833 24057 ft 391 kts 37°
2026-05-06 19:37 34.38578 -14.55565 24061 ft 391 kts 37°
2026-05-06 19:37 34.39887 -14.54045 24059 ft 392 kts 38°
2026-05-06 19:38 34.42522 -14.50988 24052 ft 392 kts 37°
2026-05-06 19:38 34.44458 -14.48735 24051 ft 392 kts 38°
2026-05-06 19:38 34.46445 -14.46427 24050 ft 393 kts 37°
2026-05-06 19:38 34.48416 -14.44131 24052 ft 393 kts 37°
2026-05-06 19:39 34.50371 -14.41857 24055 ft 392 kts 37°
2026-05-06 19:39 34.52330 -14.39572 24052 ft 392 kts 37°
2026-05-06 19:39 34.54293 -14.37287 24052 ft 392 kts 37°
2026-05-06 19:39 34.56253 -14.34998 24053 ft 391 kts 38°
2026-05-06 19:40 34.58237 -14.32684 24050 ft 392 kts 38°
2026-05-06 19:40 34.60192 -14.30399 24047 ft 392 kts 38°
2026-05-06 19:40 34.62157 -14.28103 24046 ft 392 kts 38°
2026-05-06 19:40 34.64118 -14.25804 24053 ft 392 kts 38°
2026-05-06 19:41 34.66069 -14.23523 24054 ft 393 kts 38°
2026-05-06 19:41 34.68027 -14.21229 24047 ft 391 kts 38°
2026-05-06 19:41 34.69992 -14.18924 24047 ft 392 kts 38°
2026-05-06 19:41 34.71953 -14.16624 24047 ft 392 kts 38°
2026-05-06 19:42 34.73915 -14.14320 24043 ft 392 kts 38°
2026-05-06 19:42 34.75856 -14.12039 24047 ft 393 kts 38°
2026-05-06 19:42 34.77829 -14.09724 24044 ft 394 kts 38°
2026-05-06 19:42 34.79810 -14.07391 24042 ft 394 kts 38°
2026-05-06 19:43 34.81769 -14.05087 24047 ft 393 kts 38°
2026-05-06 19:43 34.83737 -14.02769 24045 ft 393 kts 38°
2026-05-06 19:43 34.85680 -14.00477 24041 ft 393 kts 38°
2026-05-06 19:43 34.87647 -13.98157 24044 ft 393 kts 38°
2026-05-06 19:44 34.89612 -13.95837 24041 ft 393 kts 38°
2026-05-06 19:44 34.91565 -13.93529 24057 ft 394 kts 38°
2026-05-06 19:44 34.93532 -13.91203 24384 ft 398 kts 38°
2026-05-06 19:44 34.95525 -13.88843 24932 ft 398 kts 38°
2026-05-06 19:45 34.97527 -13.86473 25394 ft 400 kts 38°
2026-05-06 19:45 34.99718 -13.83878 25858 ft 402 kts 38°
2026-05-06 19:45 35.01721 -13.81501 26293 ft 404 kts 37°
2026-05-06 19:45 35.03724 -13.79125 26696 ft 406 kts 37°
2026-05-06 19:46 35.05767 -13.76700 27102 ft 407 kts 37°
2026-05-06 19:46 35.07787 -13.74299 27469 ft 409 kts 37°
2026-05-06 19:46 35.09840 -13.71859 27833 ft 411 kts 37°
2026-05-06 19:46 35.11876 -13.69438 28164 ft 414 kts 37°
2026-05-06 19:47 35.13944 -13.66977 28482 ft 417 kts 37°
2026-05-06 19:47 35.16023 -13.64499 28829 ft 420 kts 37°
2026-05-06 19:47 35.18121 -13.61997 29204 ft 421 kts 37°
2026-05-06 19:47 35.20226 -13.59483 29541 ft 423 kts 37°
2026-05-06 19:48 35.22314 -13.56990 29910 ft 424 kts 36°
2026-05-06 19:48 35.24432 -13.54458 30285 ft 424 kts 36°
2026-05-06 19:48 35.26521 -13.51957 30690 ft 423 kts 37°
2026-05-06 19:48 35.28624 -13.49441 31075 ft 423 kts 37°
2026-05-06 19:49 35.30732 -13.46917 31427 ft 423 kts 37°
2026-05-06 19:49 35.32809 -13.44428 31760 ft 424 kts 37°
2026-05-06 19:49 35.34908 -13.41907 32124 ft 423 kts 36°
2026-05-06 19:49 35.37011 -13.39383 32434 ft 424 kts 36°
2026-05-06 19:50 35.39115 -13.36853 32709 ft 425 kts 37°
2026-05-06 19:50 35.41219 -13.34324 33010 ft 425 kts 37°
2026-05-06 19:50 35.43330 -13.31783 33256 ft 426 kts 37°
2026-05-06 19:50 35.45450 -13.29232 33480 ft 427 kts 37°
2026-05-06 19:51 35.47568 -13.26678 33765 ft 427 kts 37°
2026-05-06 19:51 35.49680 -13.24126 34044 ft 426 kts 37°
2026-05-06 19:51 35.51765 -13.21605 34261 ft 427 kts 37°
2026-05-06 19:51 35.53885 -13.19046 34419 ft 429 kts 37°
2026-05-06 19:52 35.56031 -13.16451 34661 ft 428 kts 37°
2026-05-06 19:52 35.58115 -13.13930 34878 ft 427 kts 37°
2026-05-06 19:52 35.60223 -13.11378 35083 ft 426 kts 37°
2026-05-06 19:52 35.62333 -13.08821 35264 ft 426 kts 37°
2026-05-06 19:53 35.64442 -13.06262 35440 ft 426 kts 38°
2026-05-06 19:53 35.66551 -13.03701 35598 ft 427 kts 38°
2026-05-06 19:53 35.68660 -13.01138 35753 ft 427 kts 38°
2026-05-06 19:53 35.70763 -12.98578 35947 ft 426 kts 38°
2026-05-06 19:54 35.72863 -12.96021 36086 ft 426 kts 38°
2026-05-06 19:54 35.74967 -12.93457 36251 ft 426 kts 38°
2026-05-06 19:54 35.77081 -12.90881 36396 ft 426 kts 38°
2026-05-06 19:54 35.79176 -12.88325 36578 ft 426 kts 38°
2026-05-06 19:55 35.81290 -12.85744 36732 ft 426 kts 38°
2026-05-06 19:55 35.83393 -12.83176 36890 ft 426 kts 38°
2026-05-06 19:55 35.85481 -12.80621 37038 ft 426 kts 38°
2026-05-06 19:55 35.87580 -12.78053 37184 ft 426 kts 38°
2026-05-06 19:56 35.89684 -12.75473 37335 ft 426 kts 38°
2026-05-06 19:56 35.91736 -12.72848 37441 ft 429 kts 41°
2026-05-06 19:56 35.93693 -12.70019 37579 ft 431 kts 43°
2026-05-06 19:56 35.95578 -12.67195 37685 ft 432 kts 44°
2026-05-06 19:57 35.97492 -12.64319 37823 ft 431 kts 44°
2026-05-06 19:57 35.99385 -12.61475 37963 ft 430 kts 44°
2026-05-06 19:57 36.03199 -12.55767 38000 ft 435 kts 44°
2026-05-06 19:58 36.07077 -12.49976 37996 ft 440 kts 44°
2026-05-06 19:58 36.10992 -12.44120 37990 ft 445 kts 44°
2026-05-06 19:59 36.14939 -12.38208 37999 ft 449 kts 44°
2026-05-06 19:59 36.18916 -12.32248 37990 ft 453 kts 45°
2026-05-06 20:00 36.22935 -12.26210 37989 ft 456 kts 45°
2026-05-06 20:00 36.26961 -12.20149 37989 ft 459 kts 45°
2026-05-06 20:01 36.31031 -12.14014 37988 ft 462 kts 45°
2026-05-06 20:01 36.35120 -12.07841 37989 ft 464 kts 45°
2026-05-06 20:02 36.39196 -12.01671 37991 ft 466 kts 46°
2026-05-06 20:02 36.43304 -11.95441 37991 ft 468 kts 46°
2026-05-06 20:03 36.47438 -11.89164 37991 ft 470 kts 46°
2026-05-06 20:03 36.51553 -11.82901 37991 ft 471 kts 46°
2026-05-06 20:04 36.55698 -11.76580 37991 ft 472 kts 46°
2026-05-06 20:04 36.59817 -11.70293 37990 ft 473 kts 46°
2026-05-06 20:05 36.63976 -11.63928 37987 ft 475 kts 46°
2026-05-06 20:05 36.68153 -11.57526 37986 ft 476 kts 46°
2026-05-06 20:06 36.72295 -11.51168 37984 ft 477 kts 46°
2026-05-06 20:06 36.76485 -11.44715 37980 ft 477 kts 46°
2026-05-06 20:07 36.80633 -11.38320 37979 ft 477 kts 46°
2026-05-06 20:07 36.84811 -11.31864 37978 ft 478 kts 47°
2026-05-06 20:08 36.88972 -11.25427 37976 ft 478 kts 47°
2026-05-06 20:08 36.93138 -11.18966 37974 ft 479 kts 48°
2026-05-06 20:09 36.97312 -11.12480 37975 ft 480 kts 47°
2026-05-06 20:09 37.01479 -11.05993 37971 ft 480 kts 48°
2026-05-06 20:10 37.05645 -10.99495 37972 ft 480 kts 48°
2026-05-06 20:10 37.09815 -10.92979 37969 ft 481 kts 48°
2026-05-06 20:11 37.14016 -10.86398 37973 ft 481 kts 48°
2026-05-06 20:11 37.18166 -10.79885 37971 ft 482 kts 48°
2026-05-06 20:12 37.22342 -10.73320 37974 ft 483 kts 48°
2026-05-06 20:12 37.26539 -10.66712 37967 ft 484 kts 48°
2026-05-06 20:13 37.30718 -10.60115 37970 ft 485 kts 48°
2026-05-06 20:13 37.34896 -10.53506 37969 ft 486 kts 48°
2026-05-06 20:14 37.39098 -10.46851 37963 ft 487 kts 48°
2026-05-06 20:14 37.43287 -10.40198 37963 ft 487 kts 48°
2026-05-06 20:15 37.47486 -10.33517 37957 ft 488 kts 49°
2026-05-06 20:15 37.51695 -10.26811 37954 ft 489 kts 49°
2026-05-06 20:16 37.55886 -10.20115 37951 ft 490 kts 49°
2026-05-06 20:16 37.60087 -10.13386 37951 ft 490 kts 49°
2026-05-06 20:17 37.64280 -10.06662 37950 ft 491 kts 49°
2026-05-06 20:17 37.68492 -9.99892 37946 ft 491 kts 50°
2026-05-06 20:18 37.72696 -9.93122 37945 ft 492 kts 50°
2026-05-06 20:18 37.76922 -9.86304 37945 ft 493 kts 50°
2026-05-06 20:19 37.81113 -9.79526 37942 ft 493 kts 50°
2026-05-06 20:19 37.85336 -9.72682 37938 ft 493 kts 50°
2026-05-06 20:20 37.89550 -9.65837 37933 ft 494 kts 50°
2026-05-06 20:20 37.93738 -9.59020 37936 ft 494 kts 50°
2026-05-06 20:21 37.97956 -9.52141 37925 ft 493 kts 50°
2026-05-06 20:21 38.02151 -9.45287 37924 ft 494 kts 50°
2026-05-06 20:22 38.06364 -9.38388 37920 ft 495 kts 50°
2026-05-06 20:22 38.10568 -9.31489 37924 ft 495 kts 51°
2026-05-06 20:23 38.14760 -9.24597 37928 ft 495 kts 51°
2026-05-06 20:23 38.18958 -9.17676 37929 ft 496 kts 51°
2026-05-06 20:24 38.23160 -9.10740 37929 ft 496 kts 51°
2026-05-06 20:24 38.27348 -9.03808 37929 ft 496 kts 51°
2026-05-06 20:25 38.31543 -8.96850 37933 ft 496 kts 51°
2026-05-06 20:25 38.35731 -8.89886 37932 ft 496 kts 51°
2026-05-06 20:26 38.39893 -8.82953 37933 ft 496 kts 51°
2026-05-06 20:26 38.44103 -8.75927 37930 ft 496 kts 51°
2026-05-06 20:27 38.48271 -8.68956 37918 ft 497 kts 51°
2026-05-06 20:27 38.52459 -8.61935 37922 ft 497 kts 51°
2026-05-06 20:28 38.56633 -8.54923 37915 ft 496 kts 52°
2026-05-06 20:28 38.60777 -8.47945 37914 ft 496 kts 52°
2026-05-06 20:29 38.64956 -8.40892 37911 ft 496 kts 52°
2026-05-06 20:29 38.69104 -8.33878 37908 ft 497 kts 52°
2026-05-06 20:30 38.75355 -8.23277 37908 ft 497 kts 52°
2026-05-06 20:31 38.79512 -8.16208 37907 ft 498 kts 52°
2026-05-06 20:31 38.83658 -8.09146 37902 ft 497 kts 52°
2026-05-06 20:32 38.87806 -8.02064 37899 ft 498 kts 53°
2026-05-06 20:32 38.91956 -7.94961 37905 ft 497 kts 53°
2026-05-06 20:33 38.96082 -7.87880 37890 ft 497 kts 53°
2026-05-06 20:33 39.00231 -7.80747 37891 ft 497 kts 53°
2026-05-06 20:34 39.04345 -7.73659 37883 ft 498 kts 53°
2026-05-06 20:34 39.08486 -7.66507 37885 ft 498 kts 53°
2026-05-06 20:35 39.12623 -7.59350 37882 ft 498 kts 53°
2026-05-06 20:35 39.16746 -7.52198 37888 ft 498 kts 53°
2026-05-06 20:36 39.20858 -7.45048 37883 ft 499 kts 53°
2026-05-06 20:36 39.24972 -7.37881 37886 ft 499 kts 53°
2026-05-06 20:37 39.29089 -7.30693 37882 ft 498 kts 53°
2026-05-06 20:37 39.33207 -7.23485 37883 ft 499 kts 53°
2026-05-06 20:38 39.37309 -7.16289 37892 ft 498 kts 53°
2026-05-06 20:38 39.41414 -7.09072 37876 ft 499 kts 53°
2026-05-06 20:39 39.45503 -7.01865 37873 ft 500 kts 53°
2026-05-06 20:39 39.49610 -6.94610 37869 ft 500 kts 53°
2026-05-06 20:40 39.53695 -6.87378 37865 ft 500 kts 53°
2026-05-06 20:40 39.57803 -6.80088 37863 ft 500 kts 53°
2026-05-06 20:41 39.61888 -6.72821 37861 ft 499 kts 53°
2026-05-06 20:41 39.65950 -6.65577 37867 ft 499 kts 53°
2026-05-06 20:42 39.70038 -6.58266 37865 ft 499 kts 53°
2026-05-06 20:42 39.74100 -6.50976 37859 ft 499 kts 54°
2026-05-06 20:43 39.77609 -6.43292 37818 ft 494 kts 64°
2026-05-06 20:43 39.80058 -6.35084 37838 ft 488 kts 74°
2026-05-06 20:44 39.81451 -6.26431 37857 ft 487 kts 84°
2026-05-06 20:44 39.82206 -6.17753 37863 ft 487 kts 85°
2026-05-06 20:45 39.82941 -6.08995 37868 ft 487 kts 85°
2026-05-06 20:45 39.83698 -6.00227 37870 ft 488 kts 85°
2026-05-06 20:46 39.84455 -5.91477 37881 ft 488 kts 85°
2026-05-06 20:46 39.85204 -5.82765 37876 ft 488 kts 85°
2026-05-06 20:47 39.85950 -5.74010 37866 ft 487 kts 85°
2026-05-06 20:47 39.86685 -5.65297 37877 ft 487 kts 85°
2026-05-06 20:48 39.87412 -5.56586 37876 ft 488 kts 84°
2026-05-06 20:48 39.88144 -5.47808 37886 ft 488 kts 84°
2026-05-06 20:49 39.88865 -5.39062 37894 ft 489 kts 85°
2026-05-06 20:49 39.89581 -5.30257 37894 ft 489 kts 85°
2026-05-06 20:50 39.90285 -5.21492 37893 ft 489 kts 85°
2026-05-06 20:50 39.90989 -5.12653 37900 ft 489 kts 85°
2026-05-06 20:51 39.91679 -5.03892 37900 ft 489 kts 85°
2026-05-06 20:51 39.92361 -4.95155 37887 ft 488 kts 85°